User: anonymous
Location: Caltech
(34.1382°N, 118.1253°W)
Time: 21:12:55
(UTC-07:00)
Language:

Iridium 49 - Orbit

View from above orbital plane
View from above orbital plane
View from above satellite
View from above satellite

Ground track
Ground track

The orbit data is extracted from the following two-line orbital elements,

1 25108U 97082E   14105.74184323  .00000519  00000-0  17829-3 0  7235
2 25108 086.4003 019.6565 0002175 101.5938 287.6576 14.34220172854333
Epoch (UTC): 15 April 2014 17:48:15
Eccentricity: 0.0002175
inclination: 86.4003°
perigee height: 776 km
apogee height: 779 km
right ascension of ascending node: 19.6565°
argument of perigee: 101.5938°
revolutions per day: 14.34220172
mean anomaly at epoch: 287.6576°
orbit number at epoch: 85433

The dashed part of the orbit path shows where the satellite is in the earth's shadow,  

DLR